Regional Weather Roundup
Issued by NWS

Home | Current Version | Previous Version | Text Only | Print | Product List | Glossary Off
Versions: 1 2 3 4 5 6 7 8 9 10 11 12 13 14 15 16 17 18 19 20 21 22 23 24 25 26 27 28 29 30 31 32 33 34 35 36 37 38 39 40 41 42 43 44 45 46 47 48 49 50

000
ASUS44 KMEG 262000
RWRTN
TENNESSEE HOURLY STATE WEATHER ROUNDUP
NATIONAL WEATHER SERVICE MEMPHIS TN
300 PM CDT SUN APR 26 2015

TNZ002-004-019-021-049-052-054-088>092-262100-
WEST TENNESSEE

CITY           SKY/WX    TMP DP  RH WIND       PRES   REMARKS
MEMPHIS INTL   CLOUDY    64  53  67 N9        29.85R
NWS MEMPHIS      N/A     62 N/A N/A MISG        N/A
JACKSON        CLOUDY    57  50  77 NE8       29.85S
DYERSBURG      CLOUDY    57  39  51 N9        29.88R
UNION CITY     CLOUDY    55  32  41 NE12      29.87R
PARIS          CLOUDY    54  46  76 NE9       29.87S
LEXINGTON      CLOUDY    54  48  82 N8        29.84S
SAVANNAH       CLOUDY    61  32  33 N12       29.83S
$$

TNZ008-025-027-028-033-062-065-066-262100-
NORTH MIDDLE TENNESSEE

CITY           SKY/WX    TMP DP  RH WIND       PRES   REMARKS
NASHVILLE      CLOUDY    55  48  77 N8        29.84S
CLARKSVILLE    CLOUDY    56  46  69 N8        29.85F
COOKEVILLE     CLOUDY    50  48  93 VRB5      29.81S
CROSSVILLE     CLOUDY    51  46  83 NW9       29.80R
$$

TNZ061-075-076-078-094-096-097-262100-
SOUTH MIDDLE TENNESSEE

CITY           SKY/WX    TMP DP  RH WIND       PRES   REMARKS
FAYETTEVILLE   CLOUDY    59  54  82 N13       29.78F
TULLAHOMA      CLOUDY    54  48  82 N10       29.82R
WINCHESTER     CLOUDY    61  54  77 N12       29.79S
COLUMBIA       CLOUDY    55  32  41 N9        29.82S
SHELBYVILLE    CLOUDY    55  52  88 N12       29.83S
$$

TNZ017-018-042-046-047-262100-
NORTHEAST TENNESSEE

CITY           SKY/WX    TMP DP  RH WIND       PRES   REMARKS
TRI CITIES     CLOUDY    60  48  64 N6        29.73R
ELIZABETHTON   CLOUDY    55  46  71 N3        29.71F
$$

TNZ012-013-036-069-073-074-262100-
CENTRAL EAST TENNESSEE

CITY           SKY/WX    TMP DP  RH WIND       PRES   REMARKS
KNOXVILLE      CLOUDY    60  50  69 N14       29.73R
OAK RIDGE      CLOUDY    60  48  64 N7        29.77R
GATLINBURG     CLOUDY    59  52  77 NW10      29.72S
$$

TNZ083-085-099-262100-
SOUTHEAST TENNESSEE

CITY           SKY/WX    TMP DP  RH WIND       PRES   REMARKS
CHATTANOOGA    PTSUNNY   70  55  59 NW9       29.73R
$$

SKY/WX REPORTED AS FAIR MEANS FEW OR NO CLOUDS BELOW
12 THOUSAND FEET.




USA.gov is the U.S. government's official web portal to all federal, state and local government web resources and services.